Location: Allos
(44.2333°N, 6.6333°E)
Time: 03:20:36
(UTC+00:00)

H-2A R/B - Pass Details

Date: 01 December 2020
Orbit: 734 x 836 km, 98.2° (Epoch: 24 January)

Event Time Altitude Azimuth Distance (km) Brightness Sun altitude
Rises 19:07:38 0° 187° (S) 3,321 5.4 -33.7°
Enters shadow 19:08:47 - 190° (S) 2,881 5.1 -33.9°
Exits shadow 19:16:03 34° 289° (WNW) 1,273 3.5 -35.2°
Drops below altitude 10° 19:19:47 10° 331° (NNW) 2,333 4.8 -35.8°
Sets 19:22:15 0° 339° (NNW) 3,248 5.5 -36.3°
